Weather in Bogoslovka

Russia / Tambov Oblast     52°31′43″N   41°06′02″E
temp.,
°C
wind,
m/s
gust,
m/s
humid.,
%
clouds,
%
prec.,
mm/h
press.,
hPa
HPBL,
m
3 march, wed
wed300:00−1nw5109795 0.4 1009446
03:00−4nw5119678 0.4 1010259
06:00−1nw6119497 0.1 1011713
09:00−2nnw7119098 0.5 1014816
12:00−4nnw6108740 0.0 1015664
15:00−3nw5108646 0.0 1017832
18:00−5w489047 0.0 1016150
21:00−3wsw5119462 0.0 1017380
4 march, thu
thu400:00−2w6129499 0.1 1014561
03:00−2wsw7129299 0.2 1013758
06:00−2wsw71495100 0.1 1010539
09:00−1wsw8169199 0.3 1009566
12:00+1wsw8168993 0.0 1007728
15:00+1wsw7158461 0.0 1006834
18:000wsw5158590 0.0 1004557
21:00+1wsw5138994 0.0 1003637
5 march, fri
fri500:00+1wsw71398100 0.3 1000504
03:00+1wsw71498100 0.9 1000529
06:00+1wnw71197100 0.3 1001501
09:00−3nnw589397 0.6 1005426
12:00−3nnw359192 0.0 1007414
15:00−3nnw358986 0.0 1010395
18:00−5n2291100 0.0 101127
21:00−6nne2289100 0.0 101223
6 march, sat
sat600:00−6nne2388100 0.0 101249
03:00−7n3388100 0.0 101387
06:00−8nnw3794100 0.0 1014180
09:00−9nnw479177 0.0 1015244
12:00−7nw46880 0.0 1016371
15:00−5nw36830 0.0 1016707
18:00−8nw239019 0.0 101639
21:00−10nnw359415 0.0 101894
7 march, sun
sun700:00−11nw228929 0.0 101821
03:00−11sw349214 0.0 101860
06:00−10sw510910 0.0 1016230
09:00−7sw8158034 0.0 1013734
12:00−4sw101671100 0.0 10111067
15:00−2sw91768100 0.0 10071220
18:00−3wsw91876100 0.0 10051167
21:00−2wsw91781100 0.0 1004943